,,,PA_Meas_PMT16A,,PR_Meas_QMR101_102,,RH_Meas_QMH101,,SR_Meas_QMS101,,TA_Meas_QMH101,,GenWind,,GenWind,
date,time,status,PA,status,PR,status,RH,status,SR,status,TA,status,DirAvg,status,SpdAvg,
2010-01-09, 00:00:04,VALID,1009.8,VALID,0,VALID,4,VALID,0.105969,VALID,23.4992,VALID,36,VALID,0,
2010-01-09, 00:01:04,VALID,1009.79,VALID,0,VALID,4,VALID,0,VALID,23.4797,VALID,36,VALID,0,
2010-01-09, 00:02:04,VALID,1009.78,VALID,0,VALID,4,VALID,0,VALID,23.4584,VALID,44,VALID,0.248047,
2010-01-09, 00:03:04,VALID,1009.76,VALID,0,VALID,4,VALID,0,VALID,23.4779,VALID,54,VALID,0.361328,
2010-01-09, 00:04:04,VALID,1009.77,VALID,0,VALID,4,VALID,0.105969,VALID,23.4992,VALID,98,VALID,0.651953,
2010-01-09, 00:05:04,VALID,1009.78,VALID,0,VALID,4,VALID,0,VALID,23.5186,VALID,98,VALID,0.279687,
2010-01-09, 00:06:04,VALID,1009.77,VALID,0,VALID,4,VALID,0,VALID,23.4974,VALID,98,VALID,0,
2010-01-09, 00:07:04,VALID,1009.74,VALID,0,VALID,4,VALID,0,VALID,23.4992,VALID,98,VALID,0,
2010-01-09, 00:08:04,VALID,1009.72,VALID,0,VALID,4,VALID,0.105969,VALID,23.4974,VALID,98,VALID,0,
2010-01-09, 00:09:04,VALID,1009.72,VALID,0,VALID,4,VALID,0,VALID,23.4779,VALID,98,VALID,0,
2010-01-09, 00:10:04,VALID,1009.67,VALID,0,VALID,4,VALID,0,VALID,23.4992,VALID,98,VALID,0,
2010-01-09, 00:11:04,VALID,1009.69,VALID,0,VALID,4,VALID,0,VALID,23.4779,VALID,106,VALID,0.509766,
2010-01-09, 00:12:04,VALID,1009.64,VALID,0,VALID,4,VALID,0.105969,VALID,23.4992,VALID,126,VALID,0.452734,
2010-01-09, 00:13:04,VALID,1009.63,VALID,0,VALID,4,VALID,0.105969,VALID,23.4584,VALID,126,VALID,0.291016,
2010-01-09, 00:14:04,VALID,1009.65,VALID,0,VALID,4,VALID,0.105969,VALID,23.4992,VALID,127,VALID,0.277734,
2010-01-09, 00:15:04,VALID,1009.68,VALID,0,VALID,4,VALID,0.105969,VALID,23.4992,VALID,31,VALID,0.527344,
2010-01-09, 00:16:04,VALID,1009.67,VALID,0,VALID,4,VALID,0.105969,VALID,23.4779,VALID,316,VALID,0.301562,
2010-01-09, 00:17:04,VALID,1009.64,VALID,0,VALID,4,VALID,0,VALID,23.4797,VALID,316,VALID,0.00117188,
2010-01-09, 00:18:04,VALID,1009.64,VALID,0,VALID,4,VALID,0,VALID,23.4797,VALID,315,VALID,0.279297,
2010-01-09, 00:19:04,VALID,1009.64,VALID,0,VALID,4,VALID,0,VALID,23.4389,VALID,315,VALID,0,
2010-01-09, 00:20:04,VALID,1009.65,VALID,0,VALID,4,VALID,0.105969,VALID,23.4389,VALID,315,VALID,0,
2010-01-09, 00:21:04,VALID,1009.62,VALID,0,VALID,4,VALID,0.105969,VALID,23.4389,VALID,315,VALID,0,
2010-01-09, 00:22:04,VALID,1009.58,VALID,0,VALID,4,VALID,0,VALID,23.4797,VALID,315,VALID,0,
2010-01-09, 00:23:04,VALID,1009.57,VALID,0,VALID,4,VALID,0,VALID,23.4797,VALID,315,VALID,0,
2010-01-09, 00:24:04,VALID,1009.56,VALID,0,VALID,4,VALID,0.105969,VALID,23.4602,VALID,315,VALID,0,
2010-01-09, 00:25:04,VALID,1009.53,VALID,0,VALID,4,VALID,0.105969,VALID,23.4194,VALID,315,VALID,0,
2010-01-09, 00:26:04,VALID,1009.52,VALID,0,VALID,4,VALID,0,VALID,23.4194,VALID,315,VALID,0,
2010-01-09, 00:27:04,VALID,1009.53,VALID,0,VALID,4,VALID,0.105969,VALID,23.4,VALID,315,VALID,0,
2010-01-09, 00:28:04,VALID,1009.5,VALID,0,VALID,4,VALID,0.105969,VALID,23.4,VALID,315,VALID,0,
2010-01-09, 00:29:04,VALID,1009.51,VALID,0,VALID,4,VALID,0.105969,VALID,23.3805,VALID,315,VALID,0,
2010-01-09, 00:30:04,VALID,1009.52,VALID,0,VALID,4,VALID,0,VALID,23.3823,VALID,315,VALID,0,
2010-01-09, 00:31:04,VALID,1009.5,VALID,0,VALID,4,VALID,0.105969,VALID,23.3628,VALID,315,VALID,0,
2010-01-09, 00:32:04,VALID,1009.47,VALID,0,VALID,4,VALID,0.105969,VALID,23.3433,VALID,315,VALID,0,
2010-01-09, 00:33:04,VALID,1009.48,VALID,0,VALID,4,VALID,0,VALID,23.3043,VALID,315,VALID,0,
2010-01-09, 00:34:04,VALID,1009.45,VALID,0,VALID,4,VALID,0,VALID,23.2636,VALID,315,VALID,0,
2010-01-09, 00:35:04,VALID,1009.44,VALID,0,VALID,4,VALID,0.105969,VALID,23.2654,VALID,315,VALID,0,
2010-01-09, 00:36:04,VALID,1009.43,VALID,0,VALID,4,VALID,0.105969,VALID,23.2654,VALID,315,VALID,0,
2010-01-09, 00:37:04,VALID,1009.44,VALID,0,VALID,4,VALID,0.105969,VALID,23.2246,VALID,315,VALID,0,
2010-01-09, 00:38:04,VALID,1009.44,VALID,0,VALID,4,VALID,0.105969,VALID,23.2264,VALID,315,VALID,0,
2010-01-09, 00:39:04,VALID,1009.43,VALID,0,VALID,4,VALID,0,VALID,23.2264,VALID,315,VALID,0,
2010-01-09, 00:40:04,VALID,1009.44,VALID,0,VALID,4,VALID,0.105969,VALID,23.2459,VALID,315,VALID,0,
2010-01-09, 00:41:04,VALID,1009.45,VALID,0,VALID,4,VALID,0,VALID,23.2264,VALID,315,VALID,0,
2010-01-09, 00:42:04,VALID,1009.47,VALID,0,VALID,4,VALID,0,VALID,23.2282,VALID,315,VALID,0,
2010-01-09, 00:43:04,VALID,1009.46,VALID,0,VALID,4,VALID,0,VALID,23.2282,VALID,315,VALID,0,
2010-01-09, 00:44:04,VALID,1009.45,VALID,0,VALID,4,VALID,0,VALID,23.2087,VALID,315,VALID,0,
2010-01-09, 00:45:04,VALID,1009.44,VALID,0,VALID,4,VALID,0,VALID,23.2282,VALID,315,VALID,0,
2010-01-09, 00:46:04,VALID,1009.44,VALID,0,VALID,4,VALID,0,VALID,23.2087,VALID,315,VALID,0,
2010-01-09, 00:47:04,VALID,1009.46,VALID,0,VALID,4,VALID,0,VALID,23.2282,VALID,315,VALID,0,
2010-01-09, 00:48:04,VALID,1009.44,VALID,0,VALID,4,VALID,0,VALID,23.1679,VALID,315,VALID,0,
2010-01-09, 00:49:04,VALID,1009.4,VALID,0,VALID,4,VALID,0,VALID,23.1697,VALID,315,VALID,0,
2010-01-09, 00:50:04,VALID,1009.38,VALID,0,VALID,4,VALID,0,VALID,23.1697,VALID,315,VALID,0,
2010-01-09, 00:51:04,VALID,1009.37,VALID,0,VALID,4,VALID,0,VALID,23.1502,VALID,315,VALID,0,
2010-01-09, 00:52:04,VALID,1009.37,VALID,0,VALID,4,VALID,0,VALID,23.1502,VALID,315,VALID,0,
2010-01-09, 00:53:04,VALID,1009.39,VALID,0,VALID,4,VALID,0,VALID,23.1697,VALID,315,VALID,0,
2010-01-09, 00:54:04,VALID,1009.39,VALID,0,VALID,4,VALID,0,VALID,23.1485,VALID,315,VALID,0,
2010-01-09, 00:55:04,VALID,1009.37,VALID,0,VALID,4,VALID,0,VALID,23.1679,VALID,315,VALID,0,
2010-01-09, 00:56:04,VALID,1009.34,VALID,0,VALID,4,VALID,0,VALID,23.1892,VALID,315,VALID,0,
2010-01-09, 00:57:04,VALID,1009.36,VALID,0,VALID,4,VALID,0,VALID,23.1874,VALID,315,VALID,0,
2010-01-09, 00:58:04,VALID,1009.33,VALID,0,VALID,4,VALID,0,VALID,23.1874,VALID,315,VALID,0,
2010-01-09, 00:59:04,VALID,1009.36,VALID,0,VALID,4,VALID,0,VALID,23.1679,VALID,315,VALID,0,
2010-01-09, 01:00:04,VALID,1009.34,VALID,0,VALID,4,VALID,0,VALID,23.1485,VALID,315,VALID,0,
2010-01-09, 01:01:04,VALID,1009.31,VALID,0,VALID,4,VALID,0,VALID,23.1485,VALID,315,VALID,0,
2010-01-09, 01:02:04,VALID,1009.3,VALID,0,VALID,4,VALID,0,VALID,23.1485,VALID,315,VALID,0,
2010-01-09, 01:03:04,VALID,1009.3,VALID,0,VALID,4,VALID,0,VALID,23.1485,VALID,315,VALID,0,
2010-01-09, 01:04:04,VALID,1009.26,VALID,0,VALID,4,VALID,0,VALID,23.1077,VALID,315,VALID,0,
2010-01-09, 01:05:04,VALID,1009.28,VALID,0,VALID,4,VALID,0.105969,VALID,23.129,VALID,315,VALID,0,
2010-01-09, 01:06:04,VALID,1009.26,VALID,0,VALID,4,VALID,0.105969,VALID,23.129,VALID,315,VALID,0,
2010-01-09, 01:07:04,VALID,1009.25,VALID,0,VALID,4,VALID,0,VALID,23.1095,VALID,315,VALID,0,
2010-01-09, 01:08:04,VALID,1009.23,VALID,0,VALID,4,VALID,0,VALID,23.1095,VALID,315,VALID,0,
2010-01-09, 01:09:04,VALID,1009.2,VALID,0,VALID,4,VALID,0,VALID,23.129,VALID,315,VALID,0,
2010-01-09, 01:10:04,VALID,1009.19,VALID,0,VALID,4,VALID,0,VALID,23.1095,VALID,315,VALID,0,
2010-01-09, 01:11:04,VALID,1009.17,VALID,0,VALID,4,VALID,0.105969,VALID,23.1077,VALID,315,VALID,0,
2010-01-09, 01:12:04,VALID,1009.19,VALID,0,VALID,4,VALID,0,VALID,23.129,VALID,315,VALID,0,
2010-01-09, 01:13:04,VALID,1009.2,VALID,0,VALID,4,VALID,0,VALID,23.1485,VALID,315,VALID,0.403906,
2010-01-09, 01:14:04,VALID,1009.17,VALID,0,VALID,4,VALID,0.105969,VALID,23.1485,VALID,314,VALID,0.382813,
2010-01-09, 01:15:04,VALID,1009.16,VALID,0,VALID,4,VALID,0,VALID,23.1679,VALID,314,VALID,0,
2010-01-09, 01:16:04,VALID,1009.16,VALID,0,VALID,4,VALID,0,VALID,23.1679,VALID,314,VALID,0,
2010-01-09, 01:17:04,VALID,1009.17,VALID,0,VALID,4,VALID,0,VALID,23.1679,VALID,314,VALID,0,
2010-01-09, 01:18:04,VALID,1009.16,VALID,0,VALID,4,VALID,0,VALID,23.1679,VALID,314,VALID,0,
2010-01-09, 01:19:04,VALID,1009.16,VALID,0,VALID,4,VALID,0,VALID,23.1679,VALID,314,VALID,0,
2010-01-09, 01:20:04,VALID,1009.12,VALID,0,VALID,4,VALID,0,VALID,23.129,VALID,314,VALID,0,
2010-01-09, 01:21:04,VALID,1009.11,VALID,0,VALID,4,VALID,0,VALID,23.129,VALID,314,VALID,0,
2010-01-09, 01:22:04,VALID,1009.1,VALID,0,VALID,4,VALID,0,VALID,23.129,VALID,314,VALID,0,
2010-01-09, 01:23:04,VALID,1009.09,VALID,0,VALID,4,VALID,0,VALID,23.1095,VALID,314,VALID,0,
2010-01-09, 01:24:04,VALID,1009.07,VALID,0,VALID,4,VALID,0,VALID,23.129,VALID,314,VALID,0.121094,
2010-01-09, 01:25:04,VALID,1009.04,VALID,0,VALID,4,VALID,0,VALID,23.129,VALID,314,VALID,0.168359,
2010-01-09, 01:26:04,VALID,1009.03,VALID,0,VALID,4,VALID,0,VALID,23.1485,VALID,314,VALID,0.00195313,
2010-01-09, 01:27:04,VALID,1009,VALID,0,VALID,4,VALID,0,VALID,23.129,VALID,314,VALID,0,
2010-01-09, 01:28:04,VALID,1009,VALID,0,VALID,4,VALID,0,VALID,23.129,VALID,314,VALID,0,
2010-01-09, 01:29:04,VALID,1009,VALID,0,VALID,4,VALID,0,VALID,23.1095,VALID,314,VALID,0,
2010-01-09, 01:30:04,VALID,1008.99,VALID,0,VALID,4,VALID,0,VALID,23.1095,VALID,314,VALID,0,
2010-01-09, 01:31:04,VALID,1008.97,VALID,0,VALID,4,VALID,0,VALID,23.1095,VALID,314,VALID,0,
2010-01-09, 01:32:04,VALID,1008.98,VALID,0,VALID,4,VALID,0,VALID,23.1095,VALID,314,VALID,0,
2010-01-09, 01:33:04,VALID,1008.95,VALID,0,VALID,4,VALID,0.105969,VALID,23.1095,VALID,314,VALID,0,
2010-01-09, 01:34:04,VALID,1008.94,VALID,0,VALID,4,VALID,0,VALID,23.09,VALID,314,VALID,0,
2010-01-09, 01:35:04,VALID,1008.9,VALID,0,VALID,4,VALID,0,VALID,23.0705,VALID,314,VALID,0,
2010-01-09, 01:36:04,VALID,1008.87,VALID,0,VALID,4,VALID,0,VALID,23.0705,VALID,314,VALID,0,
2010-01-09, 01:37:04,VALID,1008.82,VALID,0,VALID,4,VALID,0,VALID,23.0705,VALID,314,VALID,0,
2010-01-09, 01:38:04,VALID,1008.84,VALID,0,VALID,4,VALID,0,VALID,23.0511,VALID,314,VALID,0,
2010-01-09, 01:39:04,VALID,1008.81,VALID,0,VALID,4,VALID,0,VALID,23.0705,VALID,314,VALID,0,
2010-01-09, 01:40:04,VALID,1008.8,VALID,0,VALID,4,VALID,0,VALID,23.0705,VALID,314,VALID,0,
2010-01-09, 01:41:04,VALID,1008.8,VALID,0,VALID,4,VALID,0,VALID,23.0705,VALID,314,VALID,0,
2010-01-09, 01:42:04,VALID,1008.79,VALID,0,VALID,4,VALID,0,VALID,23.0705,VALID,314,VALID,0,
2010-01-09, 01:43:04,VALID,1008.78,VALID,0,VALID,4,VALID,0,VALID,23.09,VALID,314,VALID,0,
2010-01-09, 01:44:04,VALID,1008.78,VALID,0,VALID,4,VALID,0,VALID,23.0705,VALID,314,VALID,0,
2010-01-09, 01:45:04,VALID,1008.76,VALID,0,VALID,4,VALID,0,VALID,23.0918,VALID,314,VALID,0,
2010-01-09, 01:46:04,VALID,1008.74,VALID,0,VALID,4,VALID,0,VALID,23.0705,VALID,314,VALID,0,
2010-01-09, 01:47:04,VALID,1008.72,VALID,0,VALID,4,VALID,0,VALID,23.0705,VALID,314,VALID,0,
2010-01-09, 01:48:04,VALID,1008.72,VALID,0,VALID,4,VALID,0,VALID,23.0723,VALID,314,VALID,0,
2010-01-09, 01:49:04,VALID,1008.71,VALID,0,VALID,4,VALID,0,VALID,23.0316,VALID,314,VALID,0,
2010-01-09, 01:50:04,VALID,1008.68,VALID,0,VALID,4,VALID,0,VALID,23.0316,VALID,314,VALID,0,
2010-01-09, 01:51:04,VALID,1008.68,VALID,0,VALID,4,VALID,0,VALID,23.0316,VALID,314,VALID,0,
2010-01-09, 01:52:04,VALID,1008.68,VALID,0,VALID,4,VALID,0,VALID,23.0528,VALID,314,VALID,0,
2010-01-09, 01:53:04,VALID,1008.68,VALID,0,VALID,4,VALID,0,VALID,23.0333,VALID,314,VALID,0,
2010-01-09, 01:54:04,VALID,1008.7,VALID,0,VALID,4,VALID,0,VALID,23.0333,VALID,314,VALID,0,
2010-01-09, 01:55:04,VALID,1008.7,VALID,0,VALID,4,VALID,0,VALID,23.0316,VALID,314,VALID,0,
2010-01-09, 01:56:04,VALID,1008.72,VALID,0,VALID,4,VALID,0.105969,VALID,23.0511,VALID,314,VALID,0,
2010-01-09, 01:57:04,VALID,1008.74,VALID,0,VALID,4,VALID,0.105969,VALID,23.0298,VALID,314,VALID,0,
2010-01-09, 01:58:04,VALID,1008.73,VALID,0,VALID,4,VALID,0,VALID,23.0511,VALID,314,VALID,0,
2010-01-09, 01:59:04,VALID,1008.69,VALID,0,VALID,4,VALID,0.105969,VALID,23.0511,VALID,314,VALID,0,
2010-01-09, 02:00:04,VALID,1008.71,VALID,0,VALID,4,VALID,0.105969,VALID,23.0511,VALID,314,VALID,0,
2010-01-09, 02:01:04,VALID,1008.67,VALID,0,VALID,4,VALID,0.105969,VALID,23.0705,VALID,314,VALID,0,
2010-01-09, 02:02:04,VALID,1008.67,VALID,0,VALID,4,VALID,0.105969,VALID,23.0511,VALID,314,VALID,0,
2010-01-09, 02:03:04,VALID,1008.66,VALID,0,VALID,4,VALID,0,VALID,23.0511,VALID,314,VALID,0,
2010-01-09, 02:04:04,VALID,1008.65,VALID,0,VALID,4,VALID,0.105969,VALID,23.0511,VALID,314,VALID,0,
2010-01-09, 02:05:04,VALID,1008.62,VALID,0,VALID,4,VALID,0,VALID,23.0316,VALID,314,VALID,0,
2010-01-09, 02:06:04,VALID,1008.63,VALID,0,VALID,4,VALID,0,VALID,23.0298,VALID,314,VALID,0,
2010-01-09, 02:07:04,VALID,1008.62,VALID,0,VALID,4,VALID,0,VALID,23.0316,VALID,314,VALID,0,
2010-01-09, 02:08:04,VALID,1008.64,VALID,0,VALID,4,VALID,0,VALID,23.0121,VALID,314,VALID,0,
2010-01-09, 02:09:04,VALID,1008.63,VALID,0,VALID,4,VALID,0.105969,VALID,22.9714,VALID,314,VALID,0,
2010-01-09, 02:10:04,VALID,1008.65,VALID,0,VALID,4,VALID,0,VALID,22.9714,VALID,314,VALID,0,
2010-01-09, 02:11:04,VALID,1008.65,VALID,0,VALID,4,VALID,0,VALID,22.9714,VALID,314,VALID,0,
2010-01-09, 02:12:04,VALID,1008.66,VALID,0,VALID,4,VALID,0.105969,VALID,23.0121,VALID,314,VALID,0,
2010-01-09, 02:13:04,VALID,1008.64,VALID,0,VALID,4,VALID,0.105969,VALID,23.0316,VALID,314,VALID,0,
2010-01-09, 02:14:04,VALID,1008.65,VALID,0,VALID,4,VALID,0,VALID,23.0316,VALID,314,VALID,0,
2010-01-09, 02:15:04,VALID,1008.62,VALID,0,VALID,4,VALID,0,VALID,22.9909,VALID,314,VALID,0,
2010-01-09, 02:16:04,VALID,1008.61,VALID,0,VALID,4,VALID,0,VALID,23.0121,VALID,314,VALID,0,
2010-01-09, 02:17:04,VALID,1008.62,VALID,0,VALID,4,VALID,0.105969,VALID,22.9909,VALID,314,VALID,0,
2010-01-09, 02:18:04,VALID,1008.59,VALID,0,VALID,4,VALID,0,VALID,23.0121,VALID,314,VALID,0,
2010-01-09, 02:19:04,VALID,1008.59,VALID,0,VALID,4,VALID,0.105969,VALID,22.9909,VALID,254,VALID,0,
2010-01-09, 02:20:04,VALID,1008.6,VALID,0,VALID,4,VALID,0.105969,VALID,23.0103,VALID,253,VALID,0,
2010-01-09, 02:21:04,VALID,1008.6,VALID,0,VALID,4,VALID,0.105969,VALID,23.0511,VALID,254,VALID,0,
2010-01-09, 02:22:04,VALID,1008.62,VALID,0,VALID,4,VALID,0.105969,VALID,23.0298,VALID,254,VALID,0,
2010-01-09, 02:23:04,VALID,1008.59,VALID,0,VALID,4,VALID,0.105969,VALID,23.0298,VALID,206,VALID,0,
2010-01-09, 02:24:04,VALID,1008.6,VALID,0,VALID,4,VALID,0.105969,VALID,23.0316,VALID,206,VALID,0,
2010-01-09, 02:25:04,VALID,1008.58,VALID,0,VALID,4,VALID,0.105969,VALID,22.9909,VALID,206,VALID,0,
2010-01-09, 02:26:04,VALID,1008.61,VALID,0,VALID,4,VALID,0.105969,VALID,22.9909,VALID,206,VALID,0,
2010-01-09, 02:27:04,VALID,1008.63,VALID,0,VALID,4,VALID,0,VALID,23.0298,VALID,206,VALID,0,
2010-01-09, 02:28:04,VALID,1008.6,VALID,0,VALID,4,VALID,0.105969,VALID,23.0493,VALID,206,VALID,0,
2010-01-09, 02:29:04,VALID,1008.59,VALID,0,VALID,4,VALID,0.105969,VALID,23.0688,VALID,206,VALID,0,
2010-01-09, 02:30:04,VALID,1008.56,VALID,0,VALID,4,VALID,0,VALID,23.0688,VALID,206,VALID,0,
2010-01-09, 02:31:04,VALID,1008.53,VALID,0,VALID,4,VALID,0.105969,VALID,23.0688,VALID,206,VALID,0,
2010-01-09, 02:32:04,VALID,1008.52,VALID,0.5,VALID,4,VALID,0,VALID,23.0688,VALID,206,VALID,0,
2010-01-09, 02:33:04,VALID,1008.54,VALID,0,VALID,4,VALID,0,VALID,23.09,VALID,206,VALID,0,
2010-01-09, 02:34:04,VALID,1008.53,VALID,0,VALID,4,VALID,0.105969,VALID,23.0883,VALID,206,VALID,0,
2010-01-09, 02:35:04,VALID,1008.53,VALID,0,VALID,4,VALID,0.105969,VALID,23.0883,VALID,206,VALID,0,
2010-01-09, 02:36:04,VALID,1008.53,VALID,0,VALID,4,VALID,0,VALID,23.1095,VALID,206,VALID,0,
2010-01-09, 02:37:04,VALID,1008.53,VALID,0,VALID,4,VALID,0.105969,VALID,23.0883,VALID,206,VALID,0,
2010-01-09, 02:38:04,VALID,1008.52,VALID,0,VALID,4,VALID,0.105969,VALID,23.0883,VALID,206,VALID,0,
2010-01-09, 02:39:04,VALID,1008.51,VALID,0,VALID,4,VALID,0.105969,VALID,23.09,VALID,206,VALID,0,
2010-01-09, 02:40:04,VALID,1008.52,VALID,0,VALID,4,VALID,0.105969,VALID,23.0688,VALID,206,VALID,0,
2010-01-09, 02:41:04,VALID,1008.54,VALID,0,VALID,4,VALID,0.105969,VALID,23.0493,VALID,206,VALID,0,
2010-01-09, 02:42:04,VALID,1008.52,VALID,0,VALID,4,VALID,0.105969,VALID,23.0493,VALID,206,VALID,0,
2010-01-09, 02:43:04,VALID,1008.51,VALID,0,VALID,4,VALID,0.105969,VALID,23.0493,VALID,206,VALID,0,
2010-01-09, 02:44:04,VALID,1008.49,VALID,0,VALID,4,VALID,0,VALID,23.0511,VALID,206,VALID,0,
2010-01-09, 02:45:04,VALID,1008.48,VALID,0,VALID,4,VALID,0.105969,VALID,23.0103,VALID,206,VALID,0,
2010-01-09, 02:46:04,VALID,1008.48,VALID,0,VALID,4,VALID,0,VALID,23.0316,VALID,206,VALID,0,
2010-01-09, 02:47:04,VALID,1008.49,VALID,0,VALID,4,VALID,0.105969,VALID,22.9909,VALID,206,VALID,0,
2010-01-09, 02:48:04,VALID,1008.46,VALID,0,VALID,4,VALID,0.105969,VALID,23.0121,VALID,206,VALID,0,
2010-01-09, 02:49:04,VALID,1008.5,VALID,0,VALID,4,VALID,0,VALID,23.0121,VALID,206,VALID,0,
2010-01-09, 02:50:04,VALID,1008.46,VALID,0,VALID,4,VALID,0,VALID,22.9714,VALID,206,VALID,0,
2010-01-09, 02:51:04,VALID,1008.48,VALID,0,VALID,4,VALID,0,VALID,22.9926,VALID,206,VALID,0,
2010-01-09, 02:52:04,VALID,1008.47,VALID,0,VALID,4,VALID,0,VALID,22.9519,VALID,206,VALID,0,
2010-01-09, 02:53:04,VALID,1008.5,VALID,0,VALID,4,VALID,0,VALID,22.9536,VALID,206,VALID,0,
2010-01-09, 02:54:04,VALID,1008.5,VALID,0,VALID,4,VALID,0.105969,VALID,22.9536,VALID,206,VALID,0,
2010-01-09, 02:55:04,VALID,1008.51,VALID,0,VALID,4,VALID,0.105969,VALID,22.9342,VALID,206,VALID,0,
2010-01-09, 02:56:04,VALID,1008.5,VALID,0,VALID,4,VALID,0.105969,VALID,22.9342,VALID,206,VALID,0,
2010-01-09, 02:57:04,VALID,1008.49,VALID,0,VALID,4,VALID,0.105969,VALID,22.9342,VALID,206,VALID,0,
2010-01-09, 02:58:04,VALID,1008.45,VALID,0,VALID,4,VALID,0.105969,VALID,22.874,VALID,206,VALID,0,
2010-01-09, 02:59:04,VALID,1008.4,VALID,0,VALID,4,VALID,0.105969,VALID,22.8935,VALID,206,VALID,0,
2010-01-09, 03:00:04,VALID,1008.39,VALID,0,VALID,4,VALID,0,VALID,22.8757,VALID,206,VALID,0,
2010-01-09, 03:01:04,VALID,1008.39,VALID,0,VALID,4,VALID,0,VALID,22.8757,VALID,206,VALID,0,
2010-01-09, 03:02:04,VALID,1008.4,VALID,0,VALID,4,VALID,0,VALID,22.8545,VALID,206,VALID,0,
2010-01-09, 03:03:04,VALID,1008.43,VALID,0,VALID,4,VALID,0.105969,VALID,22.8952,VALID,206,VALID,0,
2010-01-09, 03:04:04,VALID,1008.42,VALID,0,VALID,4,VALID,0.105969,VALID,22.835,VALID,206,VALID,0,
2010-01-09, 03:05:04,VALID,1008.45,VALID,0,VALID,4,VALID,0,VALID,22.835,VALID,206,VALID,0,
2010-01-09, 03:06:04,VALID,1008.46,VALID,0,VALID,4,VALID,0.105969,VALID,22.8562,VALID,206,VALID,0,
2010-01-09, 03:07:04,VALID,1008.45,VALID,0,VALID,4,VALID,0.105969,VALID,22.835,VALID,206,VALID,0,
2010-01-09, 03:08:04,VALID,1008.44,VALID,0,VALID,4,VALID,0.105969,VALID,22.8173,VALID,206,VALID,0,
2010-01-09, 03:09:04,VALID,1008.43,VALID,0,VALID,4,VALID,0.105969,VALID,22.8173,VALID,206,VALID,0,
2010-01-09, 03:10:04,VALID,1008.45,VALID,0,VALID,4,VALID,0.105969,VALID,22.7766,VALID,206,VALID,0,
2010-01-09, 03:11:04,VALID,1008.44,VALID,0,VALID,4,VALID,0,VALID,22.7978,VALID,141,VALID,0,
2010-01-09, 03:12:04,VALID,1008.42,VALID,0,VALID,4,VALID,0.105969,VALID,22.7571,VALID,141,VALID,0,
2010-01-09, 03:13:04,VALID,1008.37,VALID,0,VALID,4,VALID,0,VALID,22.7571,VALID,141,VALID,0,
2010-01-09, 03:14:04,VALID,1008.38,VALID,0,VALID,4,VALID,0,VALID,22.7588,VALID,141,VALID,0,
2010-01-09, 03:15:04,VALID,1008.36,VALID,0,VALID,4,VALID,0.105969,VALID,22.7783,VALID,140,VALID,0,
2010-01-09, 03:16:04,VALID,1008.32,VALID,0,VALID,4,VALID,0.105969,VALID,22.7783,VALID,139,VALID,0,
2010-01-09, 03:17:04,VALID,1008.3,VALID,0,VALID,4,VALID,0.105969,VALID,22.7571,VALID,139,VALID,0,
2010-01-09, 03:18:04,VALID,1008.28,VALID,0,VALID,4,VALID,0.105969,VALID,22.7588,VALID,139,VALID,0,
2010-01-09, 03:19:04,VALID,1008.27,VALID,0,VALID,4,VALID,0.105969,VALID,22.7376,VALID,139,VALID,0,
2010-01-09, 03:20:04,VALID,1008.25,VALID,0,VALID,4,VALID,0,VALID,22.7394,VALID,139,VALID,0,
2010-01-09, 03:21:04,VALID,1008.27,VALID,0,VALID,4,VALID,0.105969,VALID,22.7588,VALID,139,VALID,0,
2010-01-09, 03:22:04,VALID,1008.27,VALID,0,VALID,4,VALID,0,VALID,22.7588,VALID,139,VALID,0,
2010-01-09, 03:23:04,VALID,1008.26,VALID,0,VALID,4,VALID,0,VALID,22.7588,VALID,139,VALID,0,
2010-01-09, 03:24:04,VALID,1008.27,VALID,0,VALID,4,VALID,0,VALID,22.7394,VALID,139,VALID,0,
2010-01-09, 03:25:04,VALID,1008.3,VALID,0,VALID,4,VALID,0.105969,VALID,22.7394,VALID,139,VALID,0,
2010-01-09, 03:26:04,VALID,1008.35,VALID,0,VALID,4,VALID,0.105969,VALID,22.7182,VALID,139,VALID,0,
2010-01-09, 03:27:04,VALID,1008.32,VALID,0,VALID,4,VALID,0,VALID,22.7606,VALID,139,VALID,0,
2010-01-09, 03:28:04,VALID,1008.31,VALID,0,VALID,4,VALID,0,VALID,22.7411,VALID,139,VALID,0,
2010-01-09, 03:29:04,VALID,1008.35,VALID,0,VALID,4,VALID,0,VALID,22.7411,VALID,139,VALID,0,
2010-01-09, 03:30:04,VALID,1008.34,VALID,0,VALID,4,VALID,0,VALID,22.7394,VALID,139,VALID,0,
2010-01-09, 03:31:04,VALID,1008.37,VALID,0,VALID,4,VALID,0,VALID,22.7606,VALID,139,VALID,0,
2010-01-09, 03:32:04,VALID,1008.37,VALID,0,VALID,4,VALID,0,VALID,22.7199,VALID,139,VALID,0,
2010-01-09, 03:33:04,VALID,1008.38,VALID,0,VALID,4,VALID,0,VALID,22.7199,VALID,139,VALID,0,
2010-01-09, 03:34:04,VALID,1008.38,VALID,0,VALID,4,VALID,0,VALID,22.7199,VALID,139,VALID,0,
2010-01-09, 03:35:04,VALID,1008.41,VALID,0,VALID,4,VALID,0,VALID,22.7216,VALID,139,VALID,0,
2010-01-09, 03:36:04,VALID,1008.39,VALID,0,VALID,4,VALID,0,VALID,22.6809,VALID,139,VALID,0,
2010-01-09, 03:37:04,VALID,1008.39,VALID,0,VALID,4,VALID,0,VALID,22.7021,VALID,139,VALID,0,
2010-01-09, 03:38:04,VALID,1008.4,VALID,0,VALID,4,VALID,0,VALID,22.7216,VALID,139,VALID,0,
2010-01-09, 03:39:04,VALID,1008.42,VALID,0,VALID,4,VALID,0,VALID,22.7021,VALID,139,VALID,0,
2010-01-09, 03:40:04,VALID,1008.37,VALID,0,VALID,4,VALID,0,VALID,22.6809,VALID,139,VALID,0,
2010-01-09, 03:41:04,VALID,1008.35,VALID,0,VALID,4,VALID,0,VALID,22.7004,VALID,139,VALID,0,
2010-01-09, 03:42:04,VALID,1008.35,VALID,0,VALID,4,VALID,0.105969,VALID,22.6987,VALID,139,VALID,0,
2010-01-09, 03:43:04,VALID,1008.37,VALID,0,VALID,4,VALID,0.105969,VALID,22.6987,VALID,139,VALID,0,
2010-01-09, 03:44:04,VALID,1008.36,VALID,0,VALID,4,VALID,0,VALID,22.7004,VALID,139,VALID,0,
2010-01-09, 03:45:04,VALID,1008.4,VALID,0,VALID,4,VALID,0.105969,VALID,22.642,VALID,139,VALID,0,
2010-01-09, 03:46:04,VALID,1008.41,VALID,0,VALID,4,VALID,0.105969,VALID,22.5835,VALID,139,VALID,0,
2010-01-09, 03:47:04,VALID,1008.43,VALID,0,VALID,4,VALID,0.105969,VALID,22.5039,VALID,139,VALID,0,
2010-01-09, 03:48:04,VALID,1008.46,VALID,0,VALID,4,VALID,0.105969,VALID,22.465,VALID,139,VALID,0,
2010-01-09, 03:49:04,VALID,1008.44,VALID,0,VALID,4,VALID,0,VALID,22.465,VALID,139,VALID,0,
2010-01-09, 03:50:05,VALID,1008.43,VALID,0,VALID,4,VALID,0.105969,VALID,22.4472,VALID,139,VALID,0,
2010-01-09, 03:51:05,VALID,1008.43,VALID,0,VALID,4,VALID,0.105969,VALID,22.4082,VALID,139,VALID,0,
2010-01-09, 03:52:05,VALID,1008.42,VALID,0,VALID,4,VALID,0.105969,VALID,22.387,VALID,139,VALID,0,
2010-01-09, 03:53:05,VALID,1008.43,VALID,0,VALID,4,VALID,0.105969,VALID,22.3887,VALID,139,VALID,0,
2010-01-09, 03:54:05,VALID,1008.45,VALID,0,VALID,4,VALID,0.105969,VALID,22.3887,VALID,139,VALID,0,
2010-01-09, 03:55:05,VALID,1008.46,VALID,0,VALID,4,VALID,0.105969,VALID,22.3676,VALID,139,VALID,0,
2010-01-09, 03:56:05,VALID,1008.45,VALID,0,VALID,4,VALID,0.105969,VALID,22.4065,VALID,139,VALID,0,
2010-01-09, 03:57:05,VALID,1008.44,VALID,0,VALID,4,VALID,0.105969,VALID,22.4455,VALID,139,VALID,0,
2010-01-09, 03:58:05,VALID,1008.45,VALID,0,VALID,4,VALID,0.105969,VALID,22.465,VALID,139,VALID,0,
2010-01-09, 03:59:05,VALID,1008.44,VALID,0,VALID,4,VALID,0,VALID,22.5056,VALID,139,VALID,0,
2010-01-09, 04:00:05,VALID,1008.45,VALID,0,VALID,4,VALID,0,VALID,22.5039,VALID,139,VALID,0,
2010-01-09, 04:01:05,VALID,1008.46,VALID,0,VALID,4,VALID,0.105969,VALID,22.5234,VALID,139,VALID,0,
2010-01-09, 04:02:05,VALID,1008.44,VALID,0,VALID,4,VALID,0.105969,VALID,22.5429,VALID,139,VALID,0,
2010-01-09, 04:03:05,VALID,1008.44,VALID,0,VALID,4,VALID,0.105969,VALID,22.5429,VALID,139,VALID,0,
2010-01-09, 04:04:05,VALID,1008.41,VALID,0,VALID,4,VALID,0.105969,VALID,22.5429,VALID,139,VALID,0,
2010-01-09, 04:05:05,VALID,1008.44,VALID,0,VALID,4,VALID,0.105969,VALID,22.5623,VALID,139,VALID,0,
2010-01-09, 04:06:05,VALID,1008.46,VALID,0,VALID,4,VALID,0.105969,VALID,22.5818,VALID,139,VALID,0,